Back to catalog

SKYLINK-2

AliveCommunicationsSSO
NORAD 62672·PAYLOAD·🇹🇷 Turkey
This satellite name has not been confirmed by official sources yet.

Launched Jan 14, 2025 from Vandenberg Space Force Base

Loading…

Next Passes (next 24 hours)

TLE

FreshSource: Space-Track

Epoch: Sep 14, 2026, 12:04 UTC

1 62672U 25009BR  26257.50341754  .00003248  00000-0  13888-3 0  9998
2 62672  97.3893 335.2522 0005334  38.2106 321.9508 15.23535313149981

Track SKYLINK-2 in real time with AllMySat

Download on the App Store